FW1310 Weather Reports


time (UTC)temp
F
wind
direction
speed
knots
gust
knots
rain 1hr
in
rain 24hr
in
rain mn
in
humidity
%
barometer
mb
20260902003003 93 90 0.0 2.6 0.00 0.00 0.00 48 997.2
20260902002503 93 105 1.7 4.3 0.00 0.00 0.00 47 996.9
20260902002003 94 124 1.7 5.2 0.00 0.00 0.00 47 997.0
20260902001504 94 120 1.7 6.1 0.00 0.00 0.00 47 996.9
20260902001003 94 156 1.7 5.2 0.00 0.00 0.00 47 997.1
20260902000504 94 194 2.6 5.2 0.00 0.00 0.00 47 996.9
20260902000004 94 79 0.9 5.2 0.00 0.00 0.00 47 996.9
20260901235504 95 76 1.7 4.3 0.00 0.00 0.00 46 996.9
20260901235004 95 108 1.7 4.3 0.00 0.00 0.00 45 996.7
20260901234503 96 117 0.9 7.0 0.00 0.00 0.00 45 996.7
20260901234003 96 87 1.7 4.3 0.00 0.00 0.00 44 996.9
20260901233003 97 186 1.7 5.2 0.00 0.00 0.00 44 997.0
20260901232504 96 128 1.7 7.0 0.00 0.00 0.00 44 996.9
20260901232004 97 61 3.5 5.2 0.00 0.00 0.00 44 996.9
20260901231504 97 64 3.5 7.0 0.00 0.00 0.00 44 996.7
20260901231004 98 85 1.7 7.0 0.00 0.00 0.00 43 996.8
20260901230504 98 153 2.6 7.0 0.00 0.00 0.00 42 996.9
20260901230004 98 74 1.7 4.3 0.00 0.00 0.00 43 996.8
20260901225504 98 76 1.7 6.1 0.00 0.00 0.00 43 996.7
20260901225004 97 77 0.9 2.6 0.00 0.00 0.00 43 996.8
20260901224504 96 89 1.7 4.3 0.00 0.00 0.00 45 996.9
20260901224004 96 122 2.6 6.1 0.00 0.00 0.00 45 996.9
20260901223005 98 160 2.6 7.0 0.00 0.00 0.00 42 996.6
20260901222504 99 209 3.5 6.1 0.00 0.00 0.00 42 996.9
20260901222004 99 72 2.6 7.8 0.00 0.00 0.00 43 996.8
20260901221004 100 118 0.0 1.7 0.00 0.00 0.00 39 997.1
20260901220505 99 106 0.9 2.6 0.00 0.00 0.00 40 996.8
20260901220005 98 182 0.9 1.7 0.00 0.00 0.00 42 996.9
20260901215505 97 70 1.7 4.3 0.00 0.00 0.00 43 996.9
20260901215005 96 81 1.7 2.6 0.00 0.00 0.00 44 996.9
20260901214504 97 91 0.9 4.3 0.00 0.00 0.00 43 996.7
20260901214005 98 58 2.6 6.1 0.00 0.00 0.00 43 997.0
20260901213505 97 182 2.6 8.7 0.00 0.00 0.00 44 996.9
20260901213005 99 86 2.6 8.7 0.00 0.00 0.00 42 997.0
20260901212505 100 119 1.7 4.3 0.00 0.00 0.00 41 997.3
20260901212005 101 174 1.7 4.3 0.00 0.00 0.00 41 997.2
20260901210005 99 185 1.7 2.6 0.00 0.00 0.00 42 997.4
20260901205505 98 167 0.9 2.6 0.00 0.00 0.00 44 997.4
20260901205005 99 162 2.6 4.3 0.00 0.00 0.00 43 997.7
20260901204005 99 110 0.9 2.6 0.00 0.00 0.00 42 997.6
20260901203504 98 162 4.3 7.0 0.00 0.00 0.00 42 997.7
20260901203005 100 73 1.7 4.3 0.00 0.00 0.00 41 997.9
20260901202505 100 127 0.9 1.7 0.00 0.00 0.00 42 997.9
20260901202005 100 98 1.7 2.6 0.00 0.00 0.00 41 998.0
20260901201505 99 169 0.9 5.2 0.00 0.00 0.00 43 998.1
20260901201005 99 173 2.6 6.1 0.00 0.00 0.00 43 998.1
20260901200505 98 276 2.6 5.2 0.00 0.00 0.00 43 998.1
20260901200004 98 158 1.7 7.8 0.00 0.00 0.00 43 998.1
20260901195504 98 197 5.2 7.8 0.00 0.00 0.00 43 998.2
20260901194505 98 146 1.7 5.2 0.00 0.00 0.00 45 998.5
20260901194005 98 96 1.7 5.2 0.00 0.00 0.00 45 998.3
20260901193504 98 78 2.6 4.3 0.00 0.00 0.00 45 998.5
20260901193005 99 79 1.7 4.3 0.00 0.00 0.00 44 998.5
20260901192505 99 103 1.7 2.6 0.00 0.00 0.00 44 998.7
20260901192005 97 178 1.7 2.6 0.00 0.00 0.00 44 998.7
20260901191005 97 133 1.7 7.0 0.00 0.00 0.00 46 999.0
20260901190505 98 203 3.5 6.1 0.00 0.00 0.00 45 998.9
20260901190005 96 119 1.7 5.2 0.00 0.00 0.00 46 999.2
20260901185505 96 167 2.6 5.2 0.00 0.00 0.00 47 999.1
20260901184504 96 81 0.9 2.6 0.00 0.00 0.00 46 999.1
20260901184005 96 168 1.7 5.2 0.00 0.00 0.00 49 999.4
20260901183504 97 105 2.6 2.6 0.00 0.00 0.00 47 999.4
20260901183005 99 146 1.7 2.6 0.00 0.00 0.00 46 999.5
20260901182505 98 118 1.7 4.3 0.00 0.00 0.00 47 999.4
20260901180505 96 155 1.7 4.3 0.00 0.00 0.00 48 999.8
20260901180005 95 77 0.9 5.2 0.00 0.00 0.00 49 999.8
20260901175505 96 85 2.6 4.3 0.00 0.00 0.00 49 999.9
20260901175004 96 94 0.9 1.7 0.00 0.00 0.00 51 1000.2
20260901174505 96 131 0.9 2.6 0.00 0.00 0.00 49 1000.3
20260901174007 94 199 1.7 2.6 0.00 0.00 0.00 50 1000.2
20260901173005 95 162 2.6 4.3 0.00 0.00 0.00 51 1000.5
20260901172504 95 160 1.7 5.2 0.00 0.00 0.00 51 1000.4
20260901172005 94 178 2.6 4.3 0.00 0.00 0.00 52 1000.3
20260901171505 94 80 0.9 2.6 0.00 0.00 0.00 52 1000.4
20260901170505 94 153 0.0 2.6 0.00 0.00 0.00 53 1000.6
20260901170005 94 109 0.9 1.7 0.00 0.00 0.00 53 1000.6
20260901165004 94 143 1.7 2.6 0.00 0.00 0.00 53 1000.7
20260901164505 94 104 0.9 2.6 0.00 0.00 0.00 54 1000.8
20260901163505 93 91 0.9 1.7 0.00 0.00 0.00 55 1000.8
20260901163005 93 106 1.7 5.2 0.00 0.00 0.00 56 1001.1
20260901162505 92 83 0.9 1.7 0.00 0.00 0.00 58 1001.0
20260901162004 92 88 0.9 2.6 0.00 0.00 0.00 56 1001.0
20260901161505 93 135 0.0 1.7 0.00 0.00 0.00 57 1000.9
20260901160505 93 170 1.7 1.7 0.00 0.00 0.00 56 1001.1
20260901160005 92 102 0.9 0.9 0.00 0.00 0.00 56 1001.0
20260901155505 91 112 0.9 1.7 0.00 0.00 0.00 60 1001.2
20260901155005 91 185 0.9 1.7 0.00 0.00 0.00 61 1001.1
20260901154505 90 87 0.9 1.7 0.00 0.00 0.00 62 1001.2
20260901154005 90 170 1.7 1.7 0.00 0.00 0.00 63 1001.0
20260901153004 90 100 0.9 1.7 0.00 0.00 0.00 63 1000.9
20260901152505 89 96 0.9 1.7 0.00 0.00 0.00 65 1000.8
20260901152004 89 68 0.9 1.7 0.00 0.00 0.00 65 1001.0
20260901151505 88 103 0.9 1.7 0.00 0.00 0.00 68 1001.0
20260901151004 88 198 0.9 1.7 0.00 0.00 0.00 68 1001.1
20260901150505 86 76 0.9 2.6 0.00 0.00 0.00 71 1001.0
20260901150005 86 212 0.9 1.7 0.00 0.00 0.00 71 1001.1
20260901145005 84 259 1.7 1.7 0.00 0.00 0.00 76 1001.2
20260901144505 84 259 1.7 1.7 0.00 0.00 0.00 76 1001.1
20260901144005 84 259 1.7 1.7 0.00 0.00 0.00 76 1001.0
20260901143505 84 259 1.7 1.7 0.00 0.00 0.00 76 1001.1
20260901143005 84 259 1.7 1.7 0.00 0.00 0.00 76 1001.2
20260901142505 76 136 0.0 0.9 0.00 0.00 0.00 91 1001.2
20260901142005 76 136 0.0 0.9 0.00 0.00 0.00 91 1001.1
20260901141505 76 136 0.0 0.9 0.00 0.00 0.00 91 1001.3
20260901141004 76 136 0.0 0.9 0.00 0.00 0.00 91 1001.4
20260901140505 76 136 0.0 0.9 0.00 0.00 0.00 91 1001.3
20260901140004 76 136 0.0 0.9 0.00 0.00 0.00 91 1001.3
20260901135504 76 136 0.0 0.9 0.00 0.00 0.00 91 1001.2
20260901135005 76 136 0.0 0.9 0.00 0.00 0.00 91 1001.3
20260901134506 76 136 0.0 0.9 0.00 0.00 0.00 91 1001.1
20260901134004 76 136 0.0 0.9 0.00 0.00 0.00 91 1001.0
20260901133504 76 136 0.0 0.9 0.00 0.00 0.00 91 1001.1
20260901133005 76 136 0.0 0.9 0.00 0.00 0.00 91 1001.1
20260901132505 76 136 0.0 0.9 0.00 0.00 0.00 91 1000.9
20260901132005 76 136 0.0 0.9 0.00 0.00 0.00 91 1001.1
20260901131005 76 136 0.0 0.9 0.00 0.00 0.00 91 1000.7
20260901130505 76 136 0.0 0.9 0.00 0.00 0.00 91 1000.7
20260901092004 78 155 1.7 5.2 0.00 0.00 0.00 84 999.9
20260901091504 78 254 2.6 4.3 0.00 0.00 0.00 84 1000.0
20260901091003 78 173 1.7 2.6 0.00 0.00 0.00 84 1000.1
20260901090503 78 201 1.7 4.3 0.00 0.00 0.00 83 999.9
20260901090004 79 227 1.7 4.3 0.00 0.00 0.00 83 999.9
20260901085504 79 264 2.6 4.3 0.00 0.00 0.00 83 999.9
20260901084503 79 144 0.9 2.6 0.00 0.00 0.00 83 999.7
20260901084004 79 198 1.7 4.3 0.00 0.00 0.00 82 999.8
20260901083504 79 182 2.6 4.3 0.00 0.00 0.00 82 999.7
20260901083003 79 160 1.7 2.6 0.00 0.00 0.00 82 999.7
20260901082503 80 177 1.7 2.6 0.00 0.00 0.00 82 999.6
20260901082004 80 147 1.7 2.6 0.00 0.00 0.00 81 999.7
20260901081503 80 163 1.7 4.3 0.00 0.00 0.00 81 999.7
20260901081003 80 165 2.6 4.3 0.00 0.00 0.00 81 999.9
20260901080503 80 184 1.7 4.3 0.00 0.00 0.00 80 999.8
20260901080004 80 168 1.7 4.3 0.00 0.00 0.00 80 999.7
20260901075004 80 179 2.6 6.1 0.00 0.00 0.00 79 999.9
20260901074503 80 188 4.3 5.2 0.00 0.00 0.00 79 1000.0
20260901071504 81 175 3.5 5.2 0.00 0.00 0.00 76 1000.0
20260901071003 81 183 1.7 5.2 0.00 0.00 0.00 76 999.8
20260901070504 81 157 1.7 4.3 0.00 0.00 0.00 76 999.8
20260901070003 82 177 2.6 5.2 0.00 0.00 0.00 75 999.9
20260901065504 82 205 2.6 5.2 0.00 0.00 0.00 75 999.9
20260901065004 82 196 2.6 4.3 0.00 0.00 0.00 75 1000.0
20260901064503 82 210 4.3 7.0 0.00 0.00 0.00 74 999.9
20260901064004 82 197 1.7 5.2 0.00 0.00 0.00 74 999.9
20260901063004 82 149 4.3 7.0 0.00 0.00 0.00 74 999.7
20260901062503 82 163 4.3 7.0 0.00 0.00 0.00 74 999.6
20260901062003 82 183 2.6 7.0 0.00 0.00 0.00 74 999.6
20260901061504 82 169 2.6 4.3 0.00 0.00 0.00 74 999.4
20260901061003 82 213 2.6 5.2 0.00 0.00 0.00 74 999.5
20260901060004 83 152 1.7 2.6 0.00 0.00 0.00 72 999.6
20260901055504 83 167 1.7 4.3 0.00 0.00 0.00 71 999.4
20260901055003 83 176 2.6 5.2 0.00 0.00 0.00 71 999.5
20260901054504 83 172 2.6 2.6 0.00 0.00 0.00 70 999.6
20260901054004 83 168 2.6 2.6 0.00 0.00 0.00 69 999.4
20260901053504 83 164 1.7 5.2 0.00 0.00 0.00 69 999.4
20260901053004 83 173 3.5 7.0 0.00 0.00 0.00 68 999.4
20260901052503 83 169 4.3 7.8 0.00 0.00 0.00 67 999.6
20260901052004 84 173 2.6 6.1 0.00 0.00 0.00 67 999.3
20260901051504 84 172 4.3 6.1 0.00 0.00 0.00 67 999.3
20260901051005 84 195 2.6 4.3 0.00 0.00 0.00 67 999.3
20260901050003 84 171 2.6 6.1 0.00 0.00 0.00 66 999.3
20260901045504 84 183 2.6 7.0 0.00 0.00 0.00 65 999.3
20260901045004 85 168 4.3 7.8 0.00 0.00 0.00 65 999.3
20260901044506 85 203 4.3 7.0 0.00 0.00 0.00 65 999.2
20260901044003 85 168 4.3 7.0 0.00 0.00 0.00 64 999.2
20260901043503 85 215 4.3 6.1 0.00 0.00 0.00 64 999.1
20260901043004 85 209 4.3 7.8 0.00 0.00 0.00 64 999.1
20260901042504 85 149 6.1 8.7 0.00 0.00 0.00 64 998.9
20260901042004 85 157 5.2 8.7 0.00 0.00 0.00 63 999.2
20260901041503 86 154 4.3 7.0 0.00 0.00 0.00 63 999.1
20260901041003 86 180 4.3 7.0 0.00 0.00 0.00 62 999.0
20260901040004 86 188 1.7 6.1 0.00 0.00 0.00 62 999.1
20260901035504 86 191 1.7 5.2 0.00 0.00 0.00 61 999.1
20260901035004 86 159 2.6 5.2 0.00 0.00 0.00 60 999.2
20260901034503 87 181 2.6 6.1 0.00 0.00 0.00 59 999.1
20260901034003 87 178 2.6 7.8 0.00 0.00 0.00 58 999.0
20260901033504 87 148 3.5 7.0 0.00 0.00 0.00 58 998.8
20260901033004 87 172 5.2 6.1 0.00 0.00 0.00 56 998.9
20260901032503 86 157 2.6 5.2 0.00 0.00 0.00 55 998.7
20260901032003 86 144 1.7 4.3 0.00 0.00 0.00 53 998.8
20260901030504 86 131 1.7 1.7 0.00 0.00 0.00 51 998.6
20260901030004 87 146 0.9 1.7 0.00 0.00 0.00 51 998.5
20260901025003 87 149 0.9 4.3 0.00 0.00 0.00 50 998.4
20260901024004 87 134 0.9 2.6 0.00 0.00 0.00 50 998.4
20260901023504 87 126 0.9 2.6 0.00 0.00 0.00 50 998.3
20260901023004 87 150 0.9 1.7 0.00 0.00 0.00 51 998.2
20260901022504 87 138 0.9 1.7 0.00 0.00 0.00 51 998.1
20260901022003 87 148 0.9 1.7 0.00 0.00 0.00 51 998.1
20260901021503 88 146 0.0 0.9 0.00 0.00 0.00 50 998.1
20260901021004 88 134 0.9 0.9 0.00 0.00 0.00 49 997.9
20260901020504 88 128 0.9 1.7 0.00 0.00 0.00 49 998.1
20260901020004 89 146 0.9 1.7 0.00 0.00 0.00 49 997.9
20260901015504 89 144 1.7 1.7 0.00 0.00 0.00 48 997.8
20260901015004 89 113 0.9 1.7 0.00 0.00 0.00 48 997.6
20260901014503 89 127 0.9 1.7 0.00 0.00 0.00 48 997.8
20260901014004 89 131 1.7 1.7 0.00 0.00 0.00 47 997.8
20260901013504 90 130 0.9 2.6 0.00 0.00 0.00 47 997.7
20260901013003 90 148 1.7 2.6 0.00 0.00 0.00 46 997.7
20260901012503 90 139 0.9 2.6 0.00 0.00 0.00 46 997.6
20260901012004 91 104 0.9 2.6 0.00 0.00 0.00 45 997.6
20260901011504 91 177 1.7 2.6 0.00 0.00 0.00 45 997.6
20260901011004 91 143 1.7 1.7 0.00 0.00 0.00 45 997.3
20260901010504 91 161 0.9 2.6 0.00 0.00 0.00 44 997.5
20260901010004 92 100 1.7 2.6 0.00 0.00 0.00 44 997.3
20260901005503 92 124 1.7 2.6 0.00 0.00 0.00 43 997.4
20260901005003 92 49 1.7 2.6 0.00 0.00 0.00 43 997.3
20260901004504 93 130 0.9 2.6 0.00 0.00 0.00 43 997.5
20260901004004 93 160 1.7 4.3 0.00 0.00 0.00 43 997.3
20260901003503 93 183 0.9 5.2 0.00 0.00 0.00 43 997.4